<?xml version="1.0"?>
<gpx xmlns="http://www.topografix.com/GPX/1/1" xmlns:xsi="http://www.w3.org/2001/XMLSchema-instance" version="1.1" creator="GPX RubyGem 1.0.0 -- http://dougfales.github.io/gpx/" xsi:schemaLocation="http://www.topografix.com/GPX/1/1 http://www.topografix.com/GPX/1/1/gpx.xsd">
  <metadata>
    <name/>
    <time>2026-05-08T00:47:06+00:00</time>
    <bound minlat="90.0" minlon="180.0" maxlat="-90.0" maxlon="-180.0"/>
  </metadata>
  <trk>
    <name/>
    <trkseg>
      <trkpt lat="45.903989" lon="7.567516">
        <time>1970-01-01T00:00:00+00:00</time>
        <ele>2895.0</ele>
      </trkpt>
      <trkpt lat="45.904106" lon="7.568197">
        <time>1970-01-01T00:00:00+00:00</time>
        <ele>2884.0</ele>
      </trkpt>
      <trkpt lat="45.904466" lon="7.568432">
        <time>1970-01-01T00:00:00+00:00</time>
        <ele>2885.0</ele>
      </trkpt>
      <trkpt lat="45.905312" lon="7.569325">
        <time>1970-01-01T00:00:00+00:00</time>
        <ele>2881.0</ele>
      </trkpt>
      <trkpt lat="45.905713" lon="7.570436">
        <time>1970-01-01T00:00:00+00:00</time>
        <ele>2881.0</ele>
      </trkpt>
      <trkpt lat="45.905943" lon="7.57128">
        <time>1970-01-01T00:00:00+00:00</time>
        <ele>2879.0</ele>
      </trkpt>
      <trkpt lat="45.905739" lon="7.57145">
        <time>1970-01-01T00:00:00+00:00</time>
        <ele>2880.0</ele>
      </trkpt>
      <trkpt lat="45.905618" lon="7.574056">
        <time>1970-01-01T00:00:00+00:00</time>
        <ele>2852.0</ele>
      </trkpt>
      <trkpt lat="45.905834" lon="7.57474">
        <time>1970-01-01T00:00:00+00:00</time>
        <ele>2847.0</ele>
      </trkpt>
      <trkpt lat="45.905988" lon="7.575669">
        <time>1970-01-01T00:00:00+00:00</time>
        <ele>2846.0</ele>
      </trkpt>
      <trkpt lat="45.906741" lon="7.577723">
        <time>1970-01-01T00:00:00+00:00</time>
        <ele>2850.0</ele>
      </trkpt>
      <trkpt lat="45.907185" lon="7.577906">
        <time>1970-01-01T00:00:00+00:00</time>
        <ele>2856.0</ele>
      </trkpt>
      <trkpt lat="45.90746" lon="7.577721">
        <time>1970-01-01T00:00:00+00:00</time>
        <ele>2860.0</ele>
      </trkpt>
      <trkpt lat="45.908014" lon="7.578082">
        <time>1970-01-01T00:00:00+00:00</time>
        <ele>2874.0</ele>
      </trkpt>
      <trkpt lat="45.908415" lon="7.579056">
        <time>1970-01-01T00:00:00+00:00</time>
        <ele>2901.0</ele>
      </trkpt>
      <trkpt lat="45.908438" lon="7.579352">
        <time>1970-01-01T00:00:00+00:00</time>
        <ele>2907.0</ele>
      </trkpt>
      <trkpt lat="45.908614" lon="7.579908">
        <time>1970-01-01T00:00:00+00:00</time>
        <ele>2921.0</ele>
      </trkpt>
      <trkpt lat="45.908548" lon="7.580636">
        <time>1970-01-01T00:00:00+00:00</time>
        <ele>2941.0</ele>
      </trkpt>
      <trkpt lat="45.908862" lon="7.581315">
        <time>1970-01-01T00:00:00+00:00</time>
        <ele>2968.0</ele>
      </trkpt>
      <trkpt lat="45.909269" lon="7.5831">
        <time>1970-01-01T00:00:00+00:00</time>
        <ele>3052.0</ele>
      </trkpt>
      <trkpt lat="45.909263" lon="7.584476">
        <time>1970-01-01T00:00:00+00:00</time>
        <ele>3101.0</ele>
      </trkpt>
      <trkpt lat="45.909107" lon="7.584749">
        <time>1970-01-01T00:00:00+00:00</time>
        <ele>3109.0</ele>
      </trkpt>
      <trkpt lat="45.908641" lon="7.585035">
        <time>1970-01-01T00:00:00+00:00</time>
        <ele>3141.0</ele>
      </trkpt>
      <trkpt lat="45.90815" lon="7.585159">
        <time>1970-01-01T00:00:00+00:00</time>
        <ele>3179.0</ele>
      </trkpt>
      <trkpt lat="45.907984" lon="7.58532">
        <time>1970-01-01T00:00:00+00:00</time>
        <ele>3194.0</ele>
      </trkpt>
      <trkpt lat="45.907334" lon="7.585497">
        <time>1970-01-01T00:00:00+00:00</time>
        <ele>3216.0</ele>
      </trkpt>
      <trkpt lat="45.907702" lon="7.586323">
        <time>1970-01-01T00:00:00+00:00</time>
        <ele>3226.0</ele>
      </trkpt>
      <trkpt lat="45.907662" lon="7.587283">
        <time>1970-01-01T00:00:00+00:00</time>
        <ele>3209.0</ele>
      </trkpt>
      <trkpt lat="45.907659" lon="7.586076">
        <time>1970-01-01T00:00:00+00:00</time>
        <ele>3226.0</ele>
      </trkpt>
      <trkpt lat="45.907845" lon="7.585448">
        <time>1970-01-01T00:00:00+00:00</time>
        <ele>3205.0</ele>
      </trkpt>
      <trkpt lat="45.908125" lon="7.585182">
        <time>1970-01-01T00:00:00+00:00</time>
        <ele>3182.0</ele>
      </trkpt>
      <trkpt lat="45.909059" lon="7.584724">
        <time>1970-01-01T00:00:00+00:00</time>
        <ele>3109.0</ele>
      </trkpt>
      <trkpt lat="45.909252" lon="7.583321">
        <time>1970-01-01T00:00:00+00:00</time>
        <ele>3059.0</ele>
      </trkpt>
      <trkpt lat="45.909252" lon="7.582911">
        <time>1970-01-01T00:00:00+00:00</time>
        <ele>3044.0</ele>
      </trkpt>
      <trkpt lat="45.909096" lon="7.582017">
        <time>1970-01-01T00:00:00+00:00</time>
        <ele>2996.0</ele>
      </trkpt>
      <trkpt lat="45.908894" lon="7.581292">
        <time>1970-01-01T00:00:00+00:00</time>
        <ele>2967.0</ele>
      </trkpt>
      <trkpt lat="45.908643" lon="7.580932">
        <time>1970-01-01T00:00:00+00:00</time>
        <ele>2949.0</ele>
      </trkpt>
      <trkpt lat="45.908489" lon="7.580485">
        <time>1970-01-01T00:00:00+00:00</time>
        <ele>2936.0</ele>
      </trkpt>
      <trkpt lat="45.908246" lon="7.580064">
        <time>1970-01-01T00:00:00+00:00</time>
        <ele>2923.0</ele>
      </trkpt>
      <trkpt lat="45.908286" lon="7.579923">
        <time>1970-01-01T00:00:00+00:00</time>
        <ele>2920.0</ele>
      </trkpt>
      <trkpt lat="45.908275" lon="7.579156">
        <time>1970-01-01T00:00:00+00:00</time>
        <ele>2899.0</ele>
      </trkpt>
      <trkpt lat="45.907041" lon="7.577845">
        <time>1970-01-01T00:00:00+00:00</time>
        <ele>2853.0</ele>
      </trkpt>
      <trkpt lat="45.906629" lon="7.577552">
        <time>1970-01-01T00:00:00+00:00</time>
        <ele>2849.0</ele>
      </trkpt>
      <trkpt lat="45.906476" lon="7.576933">
        <time>1970-01-01T00:00:00+00:00</time>
        <ele>2848.0</ele>
      </trkpt>
      <trkpt lat="45.906052" lon="7.575701">
        <time>1970-01-01T00:00:00+00:00</time>
        <ele>2846.0</ele>
      </trkpt>
      <trkpt lat="45.905719" lon="7.574145">
        <time>1970-01-01T00:00:00+00:00</time>
        <ele>2849.0</ele>
      </trkpt>
      <trkpt lat="45.9056" lon="7.5741">
        <time>1970-01-01T00:00:00+00:00</time>
        <ele>2851.0</ele>
      </trkpt>
      <trkpt lat="45.905659" lon="7.57289">
        <time>1970-01-01T00:00:00+00:00</time>
        <ele>2864.0</ele>
      </trkpt>
      <trkpt lat="45.905556" lon="7.570023">
        <time>1970-01-01T00:00:00+00:00</time>
        <ele>2884.0</ele>
      </trkpt>
      <trkpt lat="45.905201" lon="7.569173">
        <time>1970-01-01T00:00:00+00:00</time>
        <ele>2880.0</ele>
      </trkpt>
      <trkpt lat="45.904128" lon="7.568278">
        <time>1970-01-01T00:00:00+00:00</time>
        <ele>2884.0</ele>
      </trkpt>
      <trkpt lat="45.904081" lon="7.567679">
        <time>1970-01-01T00:00:00+00:00</time>
        <ele>2892.0</ele>
      </trkpt>
      <trkpt lat="45.903723" lon="7.567205">
        <time>1970-01-01T00:00:00+00:00</time>
        <ele>2901.0</ele>
      </trkpt>
      <trkpt lat="45.903714" lon="7.567107">
        <time>1970-01-01T00:00:00+00:00</time>
        <ele>2903.0</ele>
      </trkpt>
    </trkseg>
  </trk>
</gpx>
